Location: Trout Lake
(45.9980°N, 121.5270°W)
Time: 14:08:32
(UTC-07:00)

COSMOS 2455 - Pass Details

Date: 06 December 2023
Orbit: 898 x 910 km, 67.1° (Epoch: 10 October)

Event Time Altitude Azimuth Distance (km) Brightness Sun altitude
Rises 17:49:12 0° 173° (S) 3,517 6.1 -14.7°
Reaches altitude 10° 17:52:05 10° 161° (SSE) 2,579 5.2 -15.2°
Maximum altitude 17:56:53 26° 107° (ESE) 1,712 3.8 -16.0°
Enters shadow 17:58:12 24° 87° (E) 1,793 3.8 -16.2°
